Wind_Speed
31 31 31 30 29 28 28 27 25 23 24 24 23 24 24 24 23 21 21 21 20 19 19 19 19 18 17 17 17 16 15 14 13 13 12 13 12 12 11 11 10 9 9 9 8 6 6 6 6 5 5 7 9 9 9 8 8 7 9 10 9 8 8 8 8 9 11 10 10 12 12 12 13 13 13 15 14 14 14 16 17 18 19 19 18
32 32 31 30 30 29 29 29 27 25 24 23 23 24 24 24 23 22 21 22 22 21 20 20 19 19 18 17 17 16 15 15 14 14 14 13 13 12 11 11 12 10 9 9 9 7 7 8 7 6 5 7 9 8 8 8 7 7 8 8 8 7 7 8 8 8 10 11 11 12 11 13 14 14 15 17 17 17 18 19 19 19 19 18 17
33 32 31 30 30 29 30 29 28 27 26 25 25 25 25 24 23 23 22 21 21 21 21 20 20 20 19 18 18 17 16 15 15 15 15 14 14 13 12 12 12 12 11 10 9 8 8 8 8 7 7 8 8 7 8 9 8 7 6 5 7 7 7 9 9 9 10 12 12 13 14 15 15 15 16 18 18 20 21 21 19 18 15 13 13
33 32 31 30 29 29 30 30 30 29 28 27 26 26 26 25 25 24 23 21 21 21 20 21 20 20 20 20 19 19 18 17 17 17 17 16 14 13 12 12 12 12 12 12 10 8 8 8 8 7 7 8 9 9 9 8 7 8 7 7 8 8 8 9 10 10 10 11 13 14 15 16 16 16 18 19 19 20 20 18 15 13 12 12 14
33 33 31 29 28 29 29 29 29 30 29 26 25 26 27 26 25 25 23 22 22 21 20 20 21 20 20 19 19 19 18 18 18 18 17 16 14 13 13 12 12 12 13 13 12 10 9 10 9 8 8 9 9 9 9 7 7 9 9 9 9 9 9 9 9 10 11 13 14 15 15 15 16 18 18 18 19 19 18 15 13 13 15 17 19
32 32 32 31 29 28 30 30 29 30 29 27 24 25 27 26 25 25 25 24 23 23 21 20 20 20 19 18 18 19 19 18 17 16 16 16 15 14 14 14 14 13 13 13 13 13 12 12 11 10 9 10 10 9 9 9 10 10 10 10 9 8 8 9 10 11 11 11 12 13 14 15 18 20 17 17 18 18 16 16 17 17 20 22 22
33 32 32 32 30 28 27 28 29 29 29 27 25 24 25 25 25 25 27 27 25 24 24 22 21 21 20 19 19 18 18 18 17 16 16 15 16 16 15 15 15 14 13 13 13 13 12 12 12 11 11 12 12 11 11 11 11 11 11 10 10 10 9 9 9 9 9 9 10 13 15 17 18 19 18 17 17 16 15 18 21 22 23 24 23
30 32 33 30 28 27 24 23 25 26 27 28 26 25 26 26 26 26 27 29 29 27 26 24 23 23 22 21 20 19 19 19 19 18 17 16 16 16 16 15 14 14 13 13 12 12 12 13 13 13 13 13 13 13 13 12 13 13 13 12 11 11 11 10 9 9 9 11 13 14 16 18 19 19 18 18 17 16 16 17 20 23 25 25 24
20 23 28 27 26 27 24 20 20 21 24 28 28 26 27 26 27 27 28 30 31 30 28 26 25 25 24 23 22 21 20 20 20 19 18 18 17 17 17 15 14 14 14 13 13 13 14 14 14 14 14 13 13 13 13 13 13 13 14 14 13 12 12 12 11 11 12 13 15 15 16 18 20 19 19 19 18 17 17 17 18 22 25 26 25
13 15 19 23 25 26 23 19 15 13 17 24 27 25 23 22 23 25 28 30 31 30 28 27 27 26 25 24 23 21 20 21 21 21 19 19 18 18 17 17 17 16 15 14 14 14 14 13 13 12 11 11 12 13 14 14 15 15 15 15 15 14 13 13 13 14 14 14 15 16 15 17 20 20 20 21 20 18 18 17 17 20 23 23 24
9 11 14 18 23 23 22 19 14 9 11 16 20 20 19 18 17 17 22 29 31 31 29 27 27 25 24 23 23 22 21 20 20 21 20 19 19 18 18 18 18 17 16 15 14 13 13 13 13 12 12 12 12 13 14 15 15 15 14 14 15 16 16 15 14 15 14 14 15 15 14 17 20 21 21 21 20 18 18 17 17 20 19 16 17
5 6 7 13 20 22 21 20 16 11 10 11 13 15 15 15 14 13 18 24 27 28 27 26 26 25 23 23 24 24 22 20 20 20 19 18 18 19 19 18 18 18 18 17 15 13 13 13 13 14 14 13 11 10 11 11 12 12 12 11 12 15 17 17 15 14 13 13 14 15 15 17 19 21 21 21 20 19 18 19 19 19 16 14 14
8 7 6 9 15 20 20 19 16 13 10 9 9 10 11 12 13 14 16 20 22 24 25 25 24 23 23 23 23 24 23 22 21 20 19 18 18 18 19 19 19 19 18 17 16 15 14 12 11 11 11 11 12 12 13 12 11 11 11 10 10 12 15 16 15 14 14 14 16 16 15 16 18 19 18 18 19 19 20 21 20 17 16 15 16
9 9 8 9 10 13 16 16 15 13 11 9 9 9 8 8 10 12 14 15 14 14 15 18 21 22 23 22 21 21 21 21 21 20 20 19 19 17 17 19 20 20 19 18 18 17 14 11 9 7 7 8 11 12 11 10 9 10 9 9 9 10 12 14 14 13 12 12 13 13 11 11 13 14 13 13 14 16 17 18 17 16 16 16 16
9 9 10 10 8 7 8 9 10 10 10 10 11 11 10 10 10 10 10 11 10 6 4 6 10 13 17 20 21 20 20 20 20 20 21 21 21 19 18 17 18 20 19 18 17 15 13 11 9 7 6 7 8 8 8 8 9 9 9 8 8 7 7 8 8 7 7 6 6 7 6 6 8 9 10 12 13 13 13 14 15 15 15 15 14
8 7 7 7 6 5 6 5 5 6 7 7 9 10 11 13 13 11 9 10 14 15 13 11 10 9 11 15 18 19 20 19 19 20 21 20 21 22 21 20 19 18 18 16 15 14 13 11 10 9 8 8 8 8 8 8 9 9 10 9 7 6 5 6 7 6 6 5 4 5 6 7 9 9 11 12 12 12 11 12 12 12 13 14 13
8 5 4 3 2 2 4 5 5 7 9 9 10 11 13 15 13 11 12 14 15 17 17 16 16 16 15 15 16 17 17 17 17 18 19 19 20 21 22 22 21 19 19 17 15 13 12 11 11 10 9 9 9 8 8 8 8 9 9 8 8 7 7 7 8 8 7 7 7 8 10 11 11 10 9 9 10 10 10 11 10 10 11 11 10
9 6 3 2 0 2 1 2 4 7 8 9 9 8 10 13 11 9 14 17 15 16 18 18 16 16 17 17 16 16 16 16 16 17 18 19 20 20 21 22 20 19 21 20 17 14 12 11 10 10 10 10 10 9 8 8 8 8 9 8 8 8 8 8 9 9 9 10 10 10 9 8 7 7 7 8 8 8 8 9 9 9 10 10 10
13 11 9 6 5 5 4 3 2 4 5 5 4 4 6 8 9 7 10 13 15 16 19 19 19 19 19 17 16 16 16 16 18 19 18 19 19 18 18 20 19 19 22 21 18 15 13 11 11 10 11 11 10 8 7 7 6 6 7 7 7 8 8 8 9 9 10 10 9 8 6 4 5 6 6 6 6 6 6 7 9 9 10 11 12
15 15 14 12 11 10 8 6 3 1 1 3 4 5 7 7 6 7 10 13 15 16 16 17 19 20 19 18 18 19 18 17 20 21 21 21 21 18 16 17 19 21 22 20 17 14 12 11 11 10 10 9 9 7 6 6 6 6 5 5 6 6 6 7 8 9 9 8 6 4 3 4 5 5 5 6 6 6 6 8 10 11 11 11 12
16 16 15 14 12 11 10 9 8 6 3 1 2 3 6 6 6 7 10 11 13 16 18 17 17 16 15 16 17 17 16 16 19 20 20 20 21 20 19 19 19 20 19 17 14 12 10 9 8 7 7 7 7 6 6 6 6 6 6 6 5 5 5 5 6 6 5 4 4 6 7 7 7 7 7 8 8 8 8 10 12 13 13 14 13
15 16 16 15 13 11 11 11 11 10 8 5 3 2 1 3 5 7 9 11 12 14 14 13 12 11 10 10 11 11 11 11 12 14 16 17 18 20 22 21 18 16 15 13 12 10 8 6 5 5 5 5 6 6 6 6 6 6 7 7 5 4 2 2 2 3 5 7 10 11 11 10 10 10 11 11 9 8 10 13 13 12 12 14 14
13 15 16 16 14 12 11 10 11 11 11 10 9 9 7 4 4 5 8 11 12 11 11 11 10 10 9 8 7 6 5 5 5 5 8 12 15 19 21 21 19 17 15 13 11 11 9 7 5 4 5 5 6 6 6 6 6 7 7 6 4 3 2 3 6 9 11 12 13 13 13 13 13 13 13 12 10 8 9 11 12 11 10 11 14
11 13 15 15 14 13 12 11 11 11 11 11 12 14 14 12 9 6 7 11 12 12 13 14 14 15 16 14 12 10 8 7 7 7 6 7 9 13 17 19 18 17 16 13 12 11 9 7 5 4 5 5 5 4 3 3 4 4 4 4 5 4 5 8 10 13 13 14 14 14 14 13 14 14 14 13 11 10 10 11 11 11 10 11 13
11 11 12 12 13 13 13 13 13 12 11 11 13 14 15 15 15 12 8 8 10 12 13 15 17 19 18 15 12 10 9 9 9 9 9 9 9 11 14 17 16 15 15 14 11 9 8 6 4 4 5 5 3 2 4 6 6 5 4 4 5 7 9 12 13 13 14 15 15 14 14 14 14 14 13 11 11 11 12 12 12 12 11 10 11
10 10 9 10 10 10 11 12 12 12 12 13 14 15 14 14 16 16 13 10 7 9 12 15 17 17 15 14 13 12 11 10 10 9 9 8 8 9 12 15 14 12 12 11 8 7 5 4 4 4 4 4 4 5 6 5 4 3 4 8 11 13 13 13 13 14 15 15 15 15 15 14 13 12 11 12 13 15 16 15 15 15 14 12 12
8 10 10 11 11 10 10 10 8 8 10 11 13 15 14 13 14 17 17 16 12 10 11 12 13 13 13 14 14 13 12 11 10 9 8 7 6 7 8 9 9 8 7 6 5 4 3 3 4 4 5 5 5 5 4 4 5 8 12 16 17 16 14 14 14 15 15 14 14 14 14 12 12 12 13 15 16 17 16 16 16 17 17 15 16
8 10 10 11 11 11 11 11 10 10 10 10 10 13 14 12 13 15 17 17 17 16 14 11 10 11 13 14 13 12 11 9 8 8 7 6 6 6 5 5 5 5 5 4 4 3 3 3 5 5 5 6 5 5 8 10 13 16 18 19 18 16 15 14 15 15 14 13 13 13 13 13 14 14 14 15 16 16 15 15 16 17 18 18 20
8 10 11 11 11 11 12 13 14 14 14 13 13 14 15 14 13 14 15 15 15 15 15 14 12 11 12 12 11 10 9 8 7 6 5 5 6 6 6 5 5 6 7 7 6 6 5 4 5 5 6 6 6 9 15 19 20 20 19 18 16 15 14 14 15 15 14 13 13 14 14 13 14 14 15 15 16 16 16 16 17 17 18 20 22
6 9 11 11 11 12 12 12 12 13 13 14 14 15 15 15 14 15 15 15 14 13 13 14 12 10 10 10 9 8 7 6 5 4 3 4 5 5 5 6 6 6 7 8 9 9 9 9 7 5 5 6 9 16 22 23 22 21 20 18 17 16 15 15 15 14 13 13 14 13 13 12 13 13 14 15 16 16 16 17 18 18 19 21 21
4 6 8 9 9 10 10 11 12 12 11 10 11 13 15 14 14 15 15 15 14 13 11 12 11 10 10 10 9 8 6 4 3 2 2 2 3 3 4 4 5 6 7 8 11 14 14 15 15 13 14 15 17 22 25 23 23 23 22 20 18 17 17 16 14 12 12 12 12 12 13 14 14 15 15 15 15 16 16 17 18 19 20 20 20
6 6 6 6 7 7 7 8 10 11 10 9 8 9 11 13 13 13 13 14 15 15 14 13 13 12 12 12 11 10 8 5 3 2 2 1 2 3 4 3 3 5 6 9 12 14 16 17 18 19 20 22 22 23 24 23 23 23 21 21 19 18 17 16 13 12 12 12 13 14 15 15 16 16 16 16 16 17 18 18 18 19 19 19 19
6 6 6 6 5 5 5 4 4 5 8 8 7 6 7 9 10 10 11 12 14 15 15 14 14 13 13 14 14 14 11 7 5 4 4 4 3 4 5 5 5 5 7 10 13 14 14 16 18 19 20 22 23 23 23 23 22 20 19 20 19 18 17 15 13 13 14 14 14 15 15 14 15 15 15 16 16 17 18 18 18 18 19 19 19
5 5 5 5 5 5 4 4 2 2 4 7 7 5 4 4 5 9 11 11 11 13 13 12 11 12 12 13 16 17 14 9 8 8 8 7 7 8 8 9 11 12 12 14 16 17 17 17 18 18 19 20 21 22 22 21 20 20 19 19 18 17 15 14 13 14 14 13 13 14 14 14 14 14 14 14 15 16 17 18 18 18 19 18 18
6 5 5 5 4 4 3 2 2 2 2 4 6 5 4 4 3 6 9 10 11 12 11 10 9 9 11 13 18 18 14 12 12 11 10 11 11 11 12 15 17 18 18 18 19 20 20 20 20 20 20 20 20 20 20 20 19 19 18 18 17 16 15 14 14 14 13 12 13 13 12 12 13 13 13 14 15 15 16 16 16 17 18 18 18
6 6 6 6 5 4 4 3 2 3 3 3 5 6 6 5 4 5 7 10 11 11 10 9 7 7 8 12 16 16 14 13 14 13 13 12 10 9 14 19 21 21 21 21 21 21 22 21 21 21 21 21 20 20 19 19 18 17 17 17 17 16 16 15 15 14 13 13 13 12 11 11 11 11 11 12 14 14 15 16 16 17 18 19 20
6 5 3 4 6 6 6 5 5 5 5 4 4 5 6 6 6 6 6 8 12 13 12 9 6 5 4 7 11 13 12 12 13 13 13 12 10 12 16 20 21 21 21 21 20 21 21 20 20 20 20 20 19 19 18 18 17 17 17 16 16 16 16 15 14 13 13 14 13 12 12 12 11 11 10 11 13 14 15 17 18 18 20 21 21
8 6 4 4 6 8 8 8 6 5 5 5 5 5 5 6 6 7 8 10 14 15 13 9 6 5 3 4 7 9 9 8 9 10 11 11 12 14 16 16 17 18 19 19 18 19 19 18 18 18 18 18 17 17 17 16 16 15 15 16 16 15 15 14 14 13 13 13 13 12 12 12 12 12 12 12 13 15 17 18 19 20 21 22 22
10 7 5 4 7 9 8 7 6 4 4 4 4 5 6 7 8 9 11 15 17 16 13 10 8 6 4 3 4 5 6 9 9 10 11 12 13 14 15 15 16 16 16 16 15 15 16 16 15 15 15 15 14 14 14 13 13 13 12 13 13 13 13 13 13 12 12 12 12 12 12 12 13 13 13 13 14 16 17 18 19 20 20 20 19
11 9 5 5 8 9 7 6 5 4 4 4 4 6 8 9 10 11 14 17 18 16 14 12 11 9 6 4 2 2 8 14 15 14 15 15 15 14 14 15 15 15 15 14 14 13 13 13 12 12 12 12 11 11 11 10 10 10 10 11 12 13 13 13 13 13 13 13 13 13 13 13 14 14 15 15 16 17 18 19 20 20 20 19 18
12 10 7 5 7 9 8 5 5 5 5 5 5 7 9 10 11 12 15 17 17 16 14 14 13 11 9 8 7 8 13 17 17 17 17 17 16 16 15 15 14 13 12 12 11 11 11 11 10 10 9 9 9 9 9 9 9 9 10 11 12 12 12 12 12 13 13 13 13 14 14 14 15 16 16 17 18 19 20 21 22 22 21 20 19
13 13 10 7 7 9 8 6 6 6 5 5 5 7 8 9 11 12 14 16 17 16 16 15 14 12 10 9 9 11 15 17 17 17 17 17 16 16 16 15 13 12 11 10 9 9 9 9 9 8 8 8 8 8 8 8 8 8 9 10 10 11 11 12 12 12 13 13 13 14 14 14 15 16 17 18 19 20 21 22 21 20 19 18 18
17 16 12 8 7 9 8 7 7 7 6 6 6 5 5 7 8 11 15 17 17 16 16 15 13 11 10 8 8 11 14 15 16 15 16 16 16 16 16 15 13 12 11 9 8 7 6 7 8 8 9 9 9 9 9 9 8 8 9 9 10 10 11 11 12 12 13 13 14 14 15 15 16 17 18 19 19 19 18 18 17 16 16 17 17
18 17 14 10 8 8 9 9 9 8 7 6 5 4 4 6 7 10 14 17 16 15 15 14 12 10 9 7 7 9 11 12 12 12 12 12 13 14 13 13 12 12 11 10 9 7 6 5 6 7 9 9 9 9 9 9 9 9 9 9 10 10 11 12 12 13 13 14 15 16 17 17 18 18 18 17 16 16 15 15 15 15 15 16 15
17 18 17 15 11 10 11 12 11 10 9 7 6 5 6 7 9 12 14 16 15 14 13 13 11 10 8 7 7 8 10 10 10 10 10 9 10 10 10 10 11 11 11 10 10 8 7 6 5 5 7 8 8 8 8 8 9 10 10 9 10 11 12 12 13 13 14 15 17 17 18 18 18 17 15 14 13 13 14 14 13 14 14 14 14
22 21 19 17 13 13 14 14 13 12 10 9 8 8 8 9 11 12 13 13 13 12 12 12 12 11 9 8 8 8 9 10 10 10 9 8 8 7 7 7 9 10 10 11 10 9 8 7 6 6 6 5 5 6 7 7 8 9 9 9 10 10 11 12 13 14 16 17 18 17 17 16 15 13 12 11 11 11 12 12 12 13 12 12 12
24 22 21 18 15 14 15 14 13 13 11 10 10 11 10 11 13 12 11 11 11 12 13 13 13 12 11 9 9 9 10 11 10 10 9 8 7 6 5 4 4 6 7 9 9 9 8 8 7 7 7 7 7 7 8 8 8 8 8 9 10 11 12 13 15 17 18 18 18 16 14 13 13 12 11 10 10 10 11 11 12 12 12 12 13
24 23 22 19 16 14 13 14 15 15 13 11 11 12 13 13 13 11 10 10 12 13 13 13 12 11 11 11 11 11 12 12 11 10 9 8 6 5 4 2 2 2 4 6 7 7 8 8 8 8 8 8 8 8 8 8 8 8 9 10 11 13 14 16 17 18 18 17 16 13 12 11 11 11 11 10 9 10 11 11 12 13 13 13 14
20 18 16 15 13 13 13 15 18 18 15 11 11 12 13 12 11 10 11 12 13 13 13 13 12 11 10 11 12 11 11 11 11 10 9 8 6 5 4 3 2 1 3 4 6 6 7 7 8 8 9 8 8 8 8 8 9 9 10 11 13 14 16 17 17 17 16 15 13 12 11 11 11 11 10 9 9 10 10 10 12 14 14 14 15
15 14 13 12 11 12 15 18 18 17 14 11 11 13 14 13 11 11 13 14 13 13 11 10 10 10 10 10 11 10 9 9 9 8 8 7 5 4 4 3 3 2 2 3 5 6 7 7 8 9 9 8 8 8 9 9 9 10 11 13 14 16 16 16 15 15 14 14 13 12 11 11 11 10 9 9 8 8 9 10 12 13 14 14 15
10 10 11 10 8 10 15 17 16 14 14 15 15 15 14 13 12 13 14 14 13 13 12 11 11 11 11 10 10 9 9 8 7 6 6 5 4 3 3 3 3 3 2 2 3 3 4 5 7 8 8 8 8 9 9 10 11 11 13 14 14 15 14 14 15 15 15 14 13 12 11 11 10 9 9 8 7 8 9 11 12 12 14 15 16
Wind_Direction
196 197 199 200 201 202 204 203 202 202 203 206 211 213 214 216 218 220 219 218 217 217 217 216 217 219 219 221 223 226 229 230 233 232 233 240 241 242 243 238 242 254 262 271 274 267 258 258 278 294 279 281 290 283 276 272 266 284 306 294 273 269 269 255 245 267 292 306 315 326 336 338 338 343 343 340 338 333 327 325 327 329 330 330 327
195 197 197 199 202 202 203 203 203 204 205 209 212 213 215 218 219 220 219 217 217 218 219 220 221 220 219 220 221 224 227 229 232 234 239 245 245 245 246 241 242 251 260 266 268 265 263 263 270 279 273 279 288 284 284 284 274 291 310 290 269 271 271 264 258 266 289 305 315 325 337 340 336 341 344 340 339 338 334 333 334 334 334 335 332
195 196 196 198 202 203 203 204 204 205 207 210 212 211 214 218 218 217 217 216 217 219 221 223 224 223 223 224 223 224 228 230 231 234 238 243 246 246 248 246 247 252 258 263 267 265 263 262 264 266 265 271 282 288 296 296 284 284 297 279 268 279 278 271 269 272 284 301 313 321 329 333 332 335 337 334 335 337 338 338 340 342 345 349 348
194 195 196 197 200 202 204 206 206 206 209 212 215 214 215 217 216 216 217 219 220 222 222 223 224 225 226 227 226 225 227 231 233 234 235 239 243 246 248 249 251 254 259 265 266 261 254 253 256 262 261 264 274 285 293 292 275 268 275 274 273 281 283 276 276 277 279 290 305 314 322 326 328 331 332 331 334 340 343 347 353 357 359 357 349
193 195 196 197 199 202 204 207 209 209 211 215 218 217 214 214 214 215 216 220 223 224 222 221 221 223 225 226 225 223 226 230 234 235 236 237 241 247 251 252 254 255 260 267 268 263 259 257 258 263 266 267 272 279 282 276 268 272 278 276 275 281 285 280 279 279 276 284 299 312 320 323 323 324 328 332 335 341 347 352 354 351 346 341 339
192 193 195 197 199 202 204 206 209 211 213 216 219 217 214 214 217 217 215 219 224 225 222 220 220 220 222 224 224 224 227 230 233 233 234 236 238 244 250 254 255 255 258 264 269 271 271 268 263 262 264 266 268 272 272 268 270 276 276 273 273 278 283 282 279 279 280 286 297 307 314 318 319 319 325 331 332 336 344 342 338 339 339 338 336
192 193 195 198 199 201 202 204 208 211 214 216 218 219 218 220 223 221 219 219 222 222 221 222 222 221 221 224 224 225 226 228 230 232 233 236 237 241 247 251 252 252 254 260 265 269 271 268 266 268 268 266 267 267 264 263 267 273 275 275 273 271 274 276 272 271 277 285 293 300 306 310 311 312 318 325 327 331 338 336 332 334 337 337 335
192 194 194 195 196 197 197 199 204 209 214 216 217 219 222 224 226 226 223 220 219 221 222 224 224 223 224 226 225 226 228 229 230 233 234 234 237 241 245 248 248 248 252 256 258 259 262 264 267 271 271 270 270 269 265 262 262 265 269 273 269 264 265 266 263 265 272 282 289 294 299 302 304 308 315 320 323 327 332 332 327 329 332 332 331
188 193 191 189 191 194 195 197 200 207 215 217 216 218 222 226 228 228 226 222 220 221 223 224 222 222 225 228 228 229 230 230 230 232 232 231 233 237 241 245 246 249 254 256 255 257 262 265 265 266 268 271 272 272 270 267 265 266 269 273 270 261 258 259 263 272 279 283 288 292 295 298 302 306 312 316 319 321 323 324 321 323 327 326 324
169 184 186 184 184 188 191 192 193 200 211 216 217 218 221 224 226 227 227 225 222 220 221 223 222 222 225 228 230 231 230 230 231 232 232 231 231 231 235 241 243 247 252 252 252 258 262 263 262 261 263 266 268 269 269 269 271 274 275 275 272 263 256 258 268 278 283 282 285 289 290 293 300 306 308 311 315 314 316 318 318 321 324 322 321
144 164 176 178 178 181 184 185 186 185 188 199 208 211 214 217 219 221 222 222 221 218 218 219 220 222 226 229 230 230 230 231 231 231 232 233 232 231 232 238 242 244 244 245 250 255 256 258 260 260 260 263 265 267 268 268 268 271 276 279 274 264 257 263 275 281 281 281 284 288 286 289 301 308 309 312 315 314 311 313 315 318 318 315 314
138 158 176 180 177 178 181 181 182 182 174 176 185 192 199 204 207 209 212 214 215 215 217 219 221 222 225 228 230 231 231 232 231 231 233 234 233 233 233 237 242 244 244 245 246 247 251 259 265 267 267 265 262 264 269 269 264 267 277 282 276 264 259 266 276 280 280 282 286 289 291 294 303 310 314 316 316 312 309 310 311 311 308 304 305
180 195 221 213 189 183 187 191 192 192 190 187 184 183 187 192 193 196 201 206 211 214 216 217 218 219 221 222 224 226 228 229 230 232 233 232 231 235 237 237 238 242 245 243 243 247 254 261 266 270 267 257 254 262 270 270 267 272 280 283 277 266 262 267 272 274 279 283 286 292 300 305 306 311 317 319 315 311 310 311 311 309 306 307 309
190 200 224 239 215 194 197 204 207 212 220 225 219 210 206 199 193 192 195 199 202 206 212 214 212 212 215 216 218 219 221 223 227 230 230 229 230 234 238 238 239 242 243 244 248 251 247 245 252 260 253 246 253 261 265 266 269 276 281 281 278 270 265 268 269 271 278 284 286 293 307 315 314 318 326 326 321 318 315 313 315 313 311 313 315
191 202 219 238 241 223 220 221 219 226 238 243 240 238 238 237 229 216 204 199 197 198 222 232 224 220 220 221 220 221 222 223 227 230 231 230 232 234 237 240 243 242 241 244 246 238 226 226 238 243 234 234 243 249 255 264 272 279 283 283 281 271 261 258 251 252 269 281 288 298 311 322 324 327 331 328 325 324 319 314 317 316 316 320 325
155 175 201 228 245 240 236 236 225 226 239 252 259 261 260 253 241 224 212 208 206 212 223 230 233 238 238 235 230 226 228 229 229 232 233 231 230 233 238 245 249 241 231 231 227 217 216 225 231 232 230 229 233 239 249 262 272 279 283 282 277 262 244 239 240 251 272 274 273 291 305 312 314 314 317 317 317 318 316 315 318 321 325 332 335
120 137 163 204 237 219 207 207 206 211 219 232 247 257 262 262 251 232 234 232 211 206 216 221 221 226 233 240 239 233 232 235 235 235 235 232 231 234 237 244 250 239 222 218 218 215 220 229 231 236 239 235 237 245 252 262 270 273 273 267 258 247 242 249 256 262 266 262 269 290 303 307 307 304 307 313 314 318 320 322 326 330 333 335 331
104 115 125 154 103 22 345 258 249 246 242 243 249 253 259 267 267 252 251 253 240 227 229 230 229 232 236 240 244 242 240 240 240 240 239 238 238 239 239 243 246 234 217 211 213 213 216 226 234 241 245 245 249 255 260 267 270 267 263 258 251 247 250 258 263 262 261 268 283 297 304 311 316 315 319 323 322 324 328 333 337 334 332 333 329
87 91 92 94 89 73 56 37 341 294 285 282 281 279 269 266 266 262 260 262 258 250 242 235 233 237 237 235 237 241 243 246 248 247 244 243 243 242 243 242 234 218 206 201 200 202 210 225 237 246 252 253 252 251 252 254 254 254 256 256 257 258 259 267 277 281 282 287 297 305 317 341 347 342 345 351 355 359 2 1 356 346 341 344 342
81 86 89 92 93 93 90 84 76 50 304 269 263 271 270 263 255 250 249 248 249 248 241 228 222 223 226 231 238 244 245 246 250 250 246 243 241 235 231 227 214 201 197 198 197 198 207 225 241 250 254 252 245 238 230 227 228 231 237 245 253 259 265 280 297 303 305 310 322 343 23 42 35 29 29 29 30 34 34 28 21 15 12 6 358
84 86 88 90 91 91 88 83 79 80 87 193 245 254 254 245 229 227 235 238 240 242 239 230 221 216 217 223 229 234 234 233 237 240 239 239 238 229 219 214 204 192 189 192 193 197 208 225 240 246 244 241 236 226 214 213 216 219 226 235 245 258 277 298 310 315 322 351 48 73 77 71 60 49 38 33 38 45 41 32 25 22 21 17 10
82 81 79 80 85 87 83 72 67 71 79 82 74 59 262 222 208 214 222 220 218 221 223 218 211 201 196 200 206 211 215 217 221 227 227 226 226 221 214 209 203 194 188 186 184 187 194 202 210 218 224 230 234 227 217 214 209 209 221 233 244 255 275 321 16 55 74 83 86 81 71 59 47 38 33 34 43 47 35 25 19 21 27 27 24
81 76 72 73 79 87 89 77 67 67 71 75 75 67 60 77 130 170 190 190 182 174 167 164 160 152 143 141 149 158 163 167 171 188 204 207 208 209 207 203 199 194 188 180 172 168 168 171 182 199 218 234 242 238 230 223 217 220 229 231 223 199 144 106 99 100 99 95 88 75 62 51 42 37 35 35 38 40 35 28 23 22 28 33 37
98 88 80 77 79 85 87 84 81 80 76 74 74 70 66 66 72 97 148 162 158 148 144 144 139 128 118 111 110 114 120 127 126 116 118 140 161 178 185 185 182 179 176 172 167 161 159 163 175 196 220 240 251 244 215 187 173 175 187 190 183 159 125 114 115 112 103 92 81 71 60 53 48 47 45 42 42 45 43 38 33 28 29 37 46
108 105 96 91 89 87 83 78 75 77 75 67 62 61 61 61 60 66 97 134 146 148 144 138 131 123 115 110 109 111 116 117 112 105 108 116 118 125 140 148 151 157 163 165 164 158 157 166 184 209 229 238 230 161 136 131 125 125 144 164 155 136 125 123 120 109 93 83 77 69 63 60 57 55 49 42 40 41 37 33 32 29 27 31 38
99 97 97 99 102 98 90 82 73 67 64 59 54 51 50 55 59 61 67 79 107 136 138 131 126 121 117 117 116 114 111 107 102 98 103 110 104 97 107 118 125 136 148 153 157 162 169 185 203 210 211 203 170 135 123 117 110 112 125 128 125 126 127 123 111 97 87 80 75 69 65 62 57 50 41 35 35 36 32 29 28 29 26 20 17
86 86 90 99 104 101 96 94 90 80 67 57 54 52 49 51 57 58 59 63 74 100 120 128 129 124 119 117 116 113 109 105 98 93 90 89 84 82 92 103 109 118 130 139 151 161 170 184 184 178 175 167 147 116 101 103 108 113 118 120 120 119 116 109 98 90 85 80 75 69 62 54 47 40 36 35 36 35 32 31 34 36 33 25 20
75 84 93 99 97 94 93 93 91 85 74 64 63 63 60 56 56 56 56 57 64 80 96 107 113 117 117 115 111 107 104 98 87 77 69 62 53 52 62 73 75 76 81 86 98 104 110 152 166 164 161 157 138 101 102 116 119 118 119 119 116 112 108 101 92 87 84 80 74 64 54 48 45 40 36 38 40 41 38 38 41 41 35 31 29
67 78 90 97 100 100 99 95 88 81 77 74 73 72 71 70 69 67 65 61 63 74 86 90 92 97 101 99 96 91 84 76 67 58 44 33 29 29 36 43 45 45 48 56 74 86 96 127 155 170 172 164 139 117 121 124 121 118 117 116 114 110 104 96 90 87 83 77 68 59 52 50 46 40 38 43 49 51 47 44 43 39 34 33 33
66 70 73 81 96 107 109 105 98 89 84 82 81 81 80 80 80 81 82 80 75 74 77 79 78 79 78 73 68 65 62 56 49 43 29 17 18 18 25 35 43 45 48 61 78 85 88 94 103 123 147 145 131 129 130 127 120 115 114 111 108 104 98 93 91 89 83 75 67 57 50 48 47 46 50 55 56 53 47 42 39 34 32 32 31
90 81 67 63 79 98 105 106 104 98 93 93 96 96 92 87 86 88 91 92 90 85 80 77 73 70 70 67 56 45 39 29 17 12 9 5 5 11 20 29 41 51 61 76 82 80 80 85 89 99 110 114 120 127 128 123 117 115 112 107 103 100 97 95 94 91 85 77 70 62 59 59 58 57 59 59 54 47 41 37 34 31 31 32 29
105 103 92 75 74 84 93 98 98 96 97 103 112 113 107 100 98 97 95 95 96 93 88 84 76 68 66 64 55 38 22 3 340 332 341 346 353 5 8 9 30 56 76 88 86 81 83 86 88 95 104 108 115 122 122 119 117 116 111 105 102 99 98 99 97 94 90 85 80 75 71 67 64 61 57 52 47 43 39 36 33 31 30 28 25
119 114 113 108 99 96 100 103 96 83 84 94 110 122 116 112 117 120 113 105 101 98 92 84 76 71 69 63 50 34 19 2 353 6 17 20 23 24 24 27 41 58 76 88 87 87 91 92 90 94 102 107 113 117 117 117 116 113 109 107 105 102 103 104 101 98 95 91 85 79 73 66 62 60 55 49 43 39 37 33 30 28 25 21 18
152 142 138 135 127 119 113 111 109 93 81 84 91 97 86 91 128 148 145 129 113 105 99 85 70 70 73 61 41 33 32 34 39 42 44 54 69 76 77 76 76 79 85 89 88 88 90 91 90 94 100 105 109 112 113 114 114 112 109 108 107 106 106 104 100 97 94 89 83 78 71 64 58 53 49 43 37 34 33 30 26 23 21 17 12
191 186 182 176 168 158 148 128 118 140 120 85 74 70 59 59 120 165 167 155 134 117 107 94 75 67 67 53 40 40 51 64 64 61 69 83 93 98 95 87 82 82 84 85 85 86 87 89 91 94 98 101 103 106 108 110 111 110 110 110 109 108 105 101 99 97 93 87 81 75 65 58 54 50 45 40 37 35 33 28 23 20 18 13 7
205 201 199 201 200 194 191 189 171 162 152 104 74 71 73 84 116 151 165 166 157 140 126 117 100 79 64 53 48 54 68 75 73 74 81 89 99 103 95 87 82 79 79 81 83 85 87 89 93 96 99 101 102 104 106 106 106 107 108 110 110 108 104 101 99 97 92 87 81 73 63 55 49 42 37 34 33 31 25 17 13 10 7 4 360
213 209 220 220 207 191 175 160 143 140 146 131 102 87 80 86 110 127 139 158 161 149 137 131 121 99 76 55 52 60 72 77 76 78 80 81 85 91 92 91 87 83 80 80 83 85 86 88 92 96 98 99 100 102 103 104 104 104 105 105 105 103 101 99 97 93 89 84 78 71 66 60 50 41 35 30 25 18 11 6 3 360 358 357 355
226 235 265 245 200 178 163 149 132 125 138 140 126 108 91 85 98 111 121 138 147 143 134 125 111 96 83 47 45 59 77 86 82 77 74 74 79 86 90 92 90 87 84 82 82 83 83 84 86 90 92 93 95 96 97 98 99 100 101 102 101 99 97 94 90 86 82 76 69 63 58 53 45 36 30 25 17 10 4 0 358 356 353 352 350
225 232 254 230 194 177 163 150 135 124 135 141 130 115 104 97 101 110 120 130 136 134 127 114 98 84 73 35 14 34 77 94 94 89 86 85 86 90 92 92 92 91 89 85 82 81 80 81 82 83 85 87 88 89 90 90 91 93 96 98 97 93 89 85 81 77 73 66 58 51 46 41 35 26 21 18 13 6 360 355 353 352 349 346 344
225 230 240 221 198 188 176 160 149 143 144 143 132 121 112 105 108 120 129 131 130 125 117 107 95 83 81 84 69 86 105 106 104 101 97 94 91 91 91 91 92 93 92 90 87 84 83 82 80 80 81 81 81 80 79 79 82 87 90 90 89 87 83 79 73 67 62 55 48 42 37 31 23 16 13 11 5 360 356 351 348 347 344 342 340
230 230 232 222 202 194 188 179 172 170 166 154 139 130 121 111 112 125 135 135 130 124 115 105 96 89 89 98 111 122 120 115 111 106 102 98 96 94 92 91 92 93 93 93 93 92 90 87 84 83 83 80 75 73 72 72 78 84 86 86 86 83 77 70 63 57 51 45 39 33 27 21 13 7 4 1 356 350 347 343 340 339 339 338 339
230 226 222 215 204 197 192 186 182 183 182 169 147 137 129 119 117 128 138 138 132 125 118 110 103 98 94 95 104 114 116 115 113 110 105 102 100 99 97 95 93 91 90 90 91 92 92 90 86 82 78 74 72 74 77 80 83 84 84 84 82 76 68 59 51 45 40 34 29 23 16 10 5 0 356 352 347 341 337 334 333 334 334 335 337
233 229 220 207 201 201 199 194 191 191 188 175 158 149 143 131 124 132 141 140 133 126 121 117 111 105 98 93 99 109 112 112 112 109 105 103 102 103 101 100 99 97 94 91 87 85 83 80 75 69 66 65 66 68 73 77 77 77 79 78 74 67 59 50 41 34 28 22 17 11 5 0 356 351 346 342 338 334 331 329 329 330 331 332 334
229 224 215 206 205 208 205 200 196 191 188 185 184 189 180 158 141 139 143 141 134 127 126 126 122 116 109 103 102 107 109 111 111 110 108 106 104 102 101 101 101 101 99 94 87 82 77 72 68 68 69 68 66 66 70 74 74 74 74 72 66 59 49 40 33 27 19 11 5 359 353 350 346 341 338 335 332 329 327 326 327 328 328 326 325
208 202 200 199 199 196 193 191 190 190 191 189 185 182 175 162 151 146 144 139 133 128 129 132 133 130 126 119 112 109 110 110 109 111 114 115 111 106 103 100 98 99 100 99 95 93 91 90 87 83 79 75 71 71 74 75 73 70 66 60 54 48 41 33 26 18 9 3 358 352 347 342 338 334 331 329 328 326 326 327 330 329 325 321 315
201 194 191 190 187 184 186 187 187 191 192 186 178 177 175 166 159 155 148 142 137 134 133 133 135 136 133 127 120 116 114 112 110 111 116 119 117 113 108 101 95 93 94 98 100 99 97 100 105 107 104 97 91 90 89 83 73 62 53 46 41 37 30 21 12 5 1 356 352 348 343 338 333 331 329 328 328 330 331 331 330 327 321 315 313
209 204 199 194 188 185 189 194 193 190 186 184 187 190 185 172 164 160 152 144 141 141 137 135 134 133 130 127 126 122 120 119 118 118 118 118 117 116 113 102 90 81 79 86 93 93 88 89 99 110 115 115 112 105 95 80 65 54 45 39 32 24 15 7 360 354 351 347 344 343 340 335 332 332 330 329 333 337 335 330 329 326 318 311 313
209 204 200 197 193 188 194 202 199 190 178 170 170 174 172 167 163 161 156 151 149 147 143 140 138 137 135 135 136 131 126 125 125 125 123 120 116 114 109 94 84 66 55 66 80 87 81 81 91 105 112 112 108 100 86 70 58 49 38 29 20 9 1 354 348 344 342 340 340 341 339 335 335 335 333 333 338 338 333 332 335 334 323 314 315
196 190 184 185 189 194 200 198 190 180 170 161 157 160 162 163 162 161 161 159 157 154 149 144 143 143 140 137 137 135 130 126 124 122 121 120 114 109 103 93 81 23 13 43 73 91 91 84 90 104 112 109 98 86 73 61 51 40 27 17 8 358 351 346 343 342 341 341 343 344 341 338 338 338 335 335 335 334 334 340 343 339 330 324 325
176 177 176 175 177 183 187 184 177 171 172 177 176 169 164 162 162 163 163 160 157 155 152 148 148 148 144 140 141 143 139 131 122 116 116 117 110 98 89 78 60 31 27 54 77 93 93 84 88 101 106 97 83 72 62 51 41 29 16 5 357 352 350 350 351 351 350 348 347 345 342 338 337 334 333 333 333 336 344 349 344 335 331 330 330
170 177 186 189 184 179 178 175 169 166 170 175 173 166 159 157 158 159 160 159 157 154 151 149 149 149 146 145 146 145 140 134 127 118 113 111 100 80 69 65 71 89 95 69 61 75 79 74 79 89 90 79 67 59 49 38 27 14 3 356 354 355 357 1 2 2 358 353 347 342 338 335 333 331 334 340 345 350 352 347 338 332 332 333 330
Height
821 823 825 827 829 830 832 834 835 837 838 839 840 841 842 843 844 845 846 847 848 848 849 850 850 851 852 853 854 855 856 856 857 857 858 858 858 859 859 859 860 860 860 860 860 860 860 860 860 860 860 861 860 860 860 860 860 859 859 859 859 859 859 858 858 857 856 856 855 854 853 852 851 850 849 848 847 847 845 845 844 842 841 840 839
818 821 823 825 827 828 830 832 833 835 836 838 839 839 841 841 842 843 844 845 846 847 848 848 849 850 851 852 852 854 854 855 856 856 857 857 857 858 858 858 859 859 859 859 859 859 859 859 859 859 859 860 859 859 859 858 859 859 859 858 858 858 858 858 857 856 855 855 854 853 852 852 850 849 849 848 847 846 845 844 842 841 840 839 838
816 818 821 823 825 827 829 830 832 833 834 836 837 837 839 839 841 842 842 843 844 845 846 847 848 848 849 850 851 852 853 854 855 855 856 856 857 857 858 858 858 858 858 858 858 858 858 858 858 858 859 858 858 858 858 858 858 858 858 858 858 857 857 857 856 856 855 854 853 853 852 851 850 849 848 847 846 845 844 843 841 840 839 838 838
814 817 819 821 823 825 827 829 830 832 833 834 835 836 837 837 839 840 841 842 842 843 845 845 846 847 848 849 850 851 852 852 853 854 854 855 856 856 856 857 857 857 857 857 857 857 857 857 857 857 857 857 857 857 857 857 857 857 857 857 857 857 856 856 855 855 854 853 853 852 851 851 850 849 848 847 846 845 844 842 841 840 839 838 837
812 814 817 820 822 823 825 827 829 830 831 832 833 834 835 836 837 838 839 840 841 841 843 844 845 846 846 847 848 849 850 851 851 852 853 854 854 855 855 855 856 856 856 856 856 856 856 856 856 856 856 856 856 856 856 856 856 856 856 856 855 855 855 855 854 854 854 853 852 851 851 850 849 848 847 846 845 844 843 842 841 840 839 838 837
810 812 815 818 820 822 823 825 827 828 829 830 831 832 833 834 835 836 837 838 839 840 840 841 842 843 845 845 846 847 848 849 849 850 851 852 852 853 853 854 854 854 855 855 855 855 855 855 855 854 854 854 854 854 855 855 855 854 854 854 854 854 854 853 853 853 853 852 852 850 850 849 848 847 846 846 845 844 843 842 841 840 838 837 836
808 811 814 816 818 820 822 823 825 826 828 828 830 831 832 833 833 834 835 835 836 837 838 839 840 841 842 843 844 845 846 847 848 848 849 850 850 851 852 852 852 853 853 853 854 854 854 854 854 854 853 853 853 853 853 853 853 853 853 853 853 853 852 852 852 852 852 851 851 850 848 848 847 846 845 845 845 844 842 840 839 838 837 836 834
807 810 812 814 816 817 820 822 823 824 826 827 828 829 830 831 831 832 833 833 834 835 835 836 838 839 840 841 842 843 844 845 845 846 847 848 848 849 850 850 850 851 851 852 852 852 853 853 853 853 852 852 852 852 851 851 851 851 852 852 852 852 851 851 851 851 851 850 849 849 848 847 846 845 844 844 843 843 842 840 838 836 835 834 833
807 810 811 811 814 816 818 820 821 822 824 825 826 827 828 828 829 830 830 831 832 832 833 834 835 837 838 839 840 841 842 842 843 844 844 845 846 847 847 848 849 849 849 850 850 851 851 851 851 851 851 850 850 850 850 850 850 850 850 850 850 850 850 850 850 850 849 849 848 848 847 846 845 844 843 842 842 842 841 840 838 836 834 832 831
809 812 813 811 812 815 817 819 820 821 822 823 824 825 826 826 827 827 828 829 830 830 832 833 833 835 836 837 838 839 839 840 840 841 842 843 844 844 845 846 847 847 847 848 848 849 849 849 849 849 849 849 849 849 849 849 849 849 849 849 849 849 849 849 849 848 848 848 847 847 846 845 844 843 842 842 841 841 840 839 838 836 834 831 829
812 813 815 814 812 814 816 818 819 821 821 822 822 823 824 825 825 825 826 827 828 828 830 831 831 833 834 835 836 837 837 838 838 839 840 841 842 842 843 844 844 845 846 845 846 846 846 847 847 847 847 847 847 847 847 847 847 847 847 847 847 847 847 847 847 847 847 846 846 846 845 844 843 842 841 841 840 840 839 838 837 835 834 832 829
814 815 816 816 813 813 815 816 817 819 820 821 821 822 823 823 823 824 824 825 826 827 828 829 830 831 832 833 834 835 835 836 837 837 838 839 840 841 841 841 842 843 843 843 844 844 844 845 845 845 845 845 845 845 845 845 845 845 845 845 845 845 846 846 846 846 846 845 845 844 844 843 842 841 840 840 839 838 837 837 836 835 834 833 831
812 815 817 818 813 811 813 814 815 818 819 820 821 821 822 822 822 822 823 824 826 826 827 828 828 829 830 831 832 832 834 835 835 836 836 837 838 838 839 839 840 840 841 842 842 842 842 843 843 843 843 844 844 844 843 844 844 843 844 843 843 843 844 844 845 845 844 844 843 842 842 842 840 840 839 839 838 837 836 835 835 834 833 832 831
809 812 815 817 813 810 811 812 814 816 818 819 820 820 821 821 821 822 823 824 825 827 828 828 828 828 829 829 830 831 832 833 833 834 834 835 836 836 837 837 838 838 839 840 840 841 841 841 841 841 842 842 842 842 842 842 842 842 842 842 842 842 842 842 843 843 843 842 842 841 841 840 840 839 838 838 837 836 835 834 833 832 832 831 830
807 808 812 816 814 811 811 812 813 815 817 818 819 819 819 820 821 821 822 822 824 827 829 830 830 830 830 829 829 829 830 831 831 832 832 833 834 834 835 835 836 836 837 837 838 839 839 840 840 840 840 841 841 841 841 842 841 841 841 841 841 841 841 841 841 840 841 840 840 840 839 839 839 838 837 837 836 835 834 833 832 831 830 829 829
806 807 810 813 813 811 811 812 813 814 815 816 817 817 818 819 820 821 821 821 822 824 826 827 828 829 830 829 829 828 828 828 829 829 830 831 832 832 833 833 834 834 835 836 836 837 838 838 838 838 839 839 840 840 840 840 840 840 840 840 840 840 840 839 839 839 839 840 840 839 838 838 838 837 836 836 835 834 833 832 832 831 829 828 827
807 808 809 811 811 811 812 812 813 813 813 813 814 814 815 816 818 820 822 821 821 822 822 823 823 825 826 827 827 826 826 827 827 827 828 828 829 829 830 830 831 832 833 833 834 835 836 836 836 836 837 837 838 838 838 838 838 839 839 839 839 839 839 838 838 838 839 839 838 838 837 836 836 836 835 834 834 833 832 831 831 830 829 828 827
809 809 810 811 812 812 813 813 812 812 812 812 813 813 813 815 817 820 822 822 820 821 821 821 822 822 823 824 824 824 824 824 825 825 825 826 826 826 827 827 828 829 830 831 832 833 833 834 835 835 836 836 836 836 836 836 836 837 837 838 838 838 838 838 837 837 837 837 836 836 836 835 834 834 834 834 833 832 832 831 830 830 829 828 827
811 810 811 811 811 812 812 812 812 812 812 813 814 814 814 814 815 817 818 818 817 817 818 819 820 821 822 823 822 822 822 823 823 823 823 824 824 824 825 825 825 826 827 828 829 830 831 832 833 834 834 834 834 834 834 834 835 835 835 836 836 836 836 836 836 836 835 835 835 834 834 833 833 833 833 833 832 832 831 830 830 830 829 828 827
813 812 813 812 812 812 812 812 812 812 813 813 814 814 815 815 815 814 814 814 814 814 814 815 816 818 819 820 820 820 820 821 822 821 821 821 821 821 823 824 823 823 824 825 827 827 828 830 831 833 833 833 833 832 832 832 833 833 833 834 834 835 835 835 835 835 835 834 834 833 833 833 833 833 832 832 831 831 831 830 830 829 829 828 827
815 815 814 813 812 812 812 813 814 814 814 814 814 815 815 815 815 813 812 812 813 814 814 813 813 814 816 817 817 817 818 819 819 819 819 819 819 819 820 822 822 822 823 824 824 825 826 828 830 832 832 832 832 831 830 830 831 831 832 832 833 833 834 834 834 834 834 834 834 833 833 833 833 832 832 831 831 831 830 830 830 829 829 828 827
817 817 816 815 814 813 812 813 814 815 816 815 814 814 814 814 813 812 812 812 813 815 814 813 813 813 813 815 816 815 816 816 817 817 817 817 817 817 818 819 819 820 822 823 823 824 825 827 829 831 831 832 832 831 829 829 829 830 830 831 831 832 833 833 833 833 833 834 834 834 834 833 833 832 831 831 830 830 830 830 830 829 829 828 827
819 818 818 817 817 816 815 815 815 816 817 816 815 815 814 813 813 813 813 813 814 815 814 814 814 814 813 815 815 815 816 816 817 817 816 816 816 815 815 815 815 817 820 822 823 823 824 826 828 829 830 831 831 830 828 828 828 829 829 830 831 831 831 832 832 832 832 833 833 834 834 834 833 832 832 831 830 830 830 830 830 829 829 828 827
820 819 819 819 819 818 818 817 817 818 818 818 817 816 816 814 813 813 813 814 814 814 814 814 815 814 814 815 816 816 817 817 817 817 817 816 816 815 813 813 813 815 818 821 823 822 822 824 826 827 828 829 829 828 827 827 827 828 829 829 830 830 830 831 831 831 832 832 833 833 834 834 833 833 832 831 830 830 830 829 829 829 828 828 827
820 820 820 820 820 820 819 819 819 819 819 819 818 818 817 816 814 814 814 813 814 814 814 815 815 815 816 816 817 818 818 818 819 819 818 818 817 816 814 813 813 814 816 819 822 821 821 822 824 826 827 828 827 827 826 826 827 827 828 828 829 830 830 830 830 831 831 832 833 833 834 834 834 833 833 832 831 830 829 829 828 828 828 828 827
821 821 820 820 820 820 819 819 820 820 820 820 819 819 818 817 816 816 815 814 814 815 816 816 817 817 817 817 818 819 819 820 820 821 820 819 818 817 817 816 816 817 817 819 820 820 820 821 823 824 825 826 826 826 825 825 826 826 827 827 828 830 830 829 830 831 832 832 833 833 834 834 834 834 833 832 831 830 829 828 827 827 827 826 825
823 822 821 821 821 821 820 820 821 821 821 821 820 820 819 819 819 818 817 816 815 815 817 818 819 819 819 819 819 819 820 821 822 822 821 820 819 819 818 817 817 817 817 818 819 819 819 820 821 822 823 823 824 824 824 825 825 826 827 828 829 830 830 830 830 831 832 833 834 834 835 835 834 834 833 832 831 831 830 828 827 827 826 826 825
825 825 824 823 822 822 822 822 822 822 822 821 821 820 820 820 820 819 818 818 817 816 818 819 820 821 820 820 820 821 821 822 822 822 822 822 821 820 818 817 817 817 817 817 817 818 818 819 819 820 821 821 823 823 823 824 825 826 827 828 829 830 830 830 830 831 833 833 834 834 835 834 834 834 833 833 832 831 830 829 828 828 827 826 826
827 827 826 825 824 823 823 823 822 822 822 821 822 821 821 821 821 820 819 820 820 820 820 820 821 822 822 822 822 822 822 822 822 822 823 822 822 821 819 818 817 817 817 817 817 818 818 818 818 818 819 820 821 822 823 825 826 827 828 829 829 830 830 830 831 832 833 834 834 834 834 834 834 834 834 833 832 832 831 830 829 829 828 827 827
829 829 829 828 827 826 824 824 824 823 823 822 822 822 822 822 822 821 821 822 822 822 822 822 823 823 823 824 823 823 823 823 823 823 823 822 822 821 820 819 818 818 818 818 818 818 817 817 817 817 817 818 819 821 823 824 826 827 829 829 830 830 830 831 832 833 833 833 833 834 834 834 834 834 833 833 833 832 832 831 830 830 829 828 828
829 830 830 830 829 828 826 826 825 824 824 823 823 822 823 824 824 824 823 823 824 824 824 824 825 824 824 825 825 824 824 824 823 823 822 822 822 821 820 820 819 819 819 818 818 818 817 817 817 817 817 818 819 821 823 824 825 827 828 829 830 830 831 832 832 833 833 833 833 834 834 834 834 834 834 834 833 833 832 831 831 830 830 829 829
829 830 830 831 830 830 829 828 827 826 825 825 824 824 823 823 824 825 826 825 825 825 826 826 826 826 826 825 824 824 825 824 823 823 822 822 822 821 821 820 819 819 819 819 818 819 819 819 819 819 819 820 821 822 823 824 826 827 828 829 830 831 831 832 832 833 833 833 834 835 835 835 835 835 835 834 834 833 833 832 831 831 830 830 830
829 830 830 831 830 830 830 829 828 828 827 826 826 826 825 824 824 825 827 827 826 825 826 827 827 827 827 826 825 824 825 824 823 823 822 822 822 821 821 820 820 820 820 820 820 820 820 820 821 821 821 822 823 824 825 826 827 828 829 830 831 831 832 832 832 833 833 834 834 835 835 835 835 835 835 835 834 834 833 832 832 831 831 830 830
830 829 830 830 830 830 830 829 829 829 828 828 827 827 826 825 824 824 826 827 827 826 826 827 828 828 828 827 825 824 824 824 824 824 823 822 822 822 821 821 821 821 822 822 822 822 822 822 822 823 824 824 825 826 826 827 828 829 830 831 831 832 833 833 833 833 833 833 834 834 835 835 835 835 835 835 834 834 834 833 832 832 831 830 830
829 829 829 829 829 829 829 829 828 828 828 828 827 827 826 826 824 824 824 825 826 826 826 826 828 829 829 827 826 826 825 825 825 825 825 824 823 823 822 822 822 823 823 824 824 824 824 824 825 825 826 826 827 828 828 829 830 830 831 831 832 832 833 833 833 833 833 833 834 834 834 835 835 835 835 835 834 834 834 833 833 832 831 830 829
829 828 828 828 828 828 828 828 828 828 828 828 827 827 826 826 825 824 824 824 825 825 826 826 828 829 829 829 829 829 828 827 827 827 827 826 825 824 824 824 825 826 826 827 827 827 827 827 827 828 828 828 829 829 830 830 831 831 832 832 832 832 833 833 833 833 833 833 834 834 834 834 835 835 834 834 835 835 834 834 833 832 831 830 829
829 829 828 828 827 827 827 827 827 827 827 827 827 827 827 826 826 825 825 825 825 826 827 828 828 829 830 831 831 831 830 829 829 829 829 828 827 826 826 827 828 828 829 830 830 830 830 830 830 830 830 830 831 831 832 832 833 833 833 833 833 833 833 833 833 833 834 834 834 834 834 834 835 834 834 834 835 835 835 834 833 832 831 830 829
830 829 828 828 827 826 826 826 826 826 826 826 826 826 826 826 826 825 825 825 826 827 828 829 829 830 830 831 832 831 830 830 830 830 830 830 829 829 829 829 830 830 831 832 832 832 832 833 833 833 832 833 833 833 834 834 834 834 834 834 834 834 834 834 834 834 834 834 835 835 835 835 835 835 834 834 834 835 835 834 833 832 830 829 828
829 829 829 828 827 827 827 826 826 826 826 826 826 825 825 825 825 825 825 825 826 827 828 829 830 830 831 831 831 831 830 831 831 831 831 831 831 831 831 831 831 832 833 833 834 834 834 834 835 834 834 834 834 835 835 835 836 836 835 835 835 834 834 834 834 834 834 835 835 836 835 835 835 835 835 834 834 834 834 834 833 831 830 829 828
828 828 828 827 827 828 828 827 827 826 826 826 826 826 826 825 825 825 826 826 827 828 829 830 830 831 831 831 831 831 831 832 832 833 833 833 833 833 833 833 833 834 835 835 835 835 835 835 836 836 835 835 835 836 836 836 837 837 836 836 836 836 836 836 836 836 835 835 836 836 835 835 835 835 835 834 834 833 833 832 831 830 829 828 827
826 827 827 827 827 827 827 827 827 827 827 827 827 826 827 827 826 826 827 827 828 829 830 831 831 832 832 832 832 832 832 832 833 834 834 834 835 835 835 835 836 836 836 836 836 837 837 837 836 836 836 836 836 836 836 837 837 837 837 837 837 837 837 837 837 836 836 836 836 835 835 835 835 834 834 833 833 832 831 831 829 828 827 826 825
824 825 825 825 826 826 827 827 827 827 827 827 827 827 828 827 827 827 827 828 829 830 830 832 833 833 833 833 833 833 833 833 834 835 835 835 836 836 837 837 837 837 838 838 838 838 838 837 837 837 836 836 836 836 836 836 837 837 837 837 837 837 837 837 837 837 836 836 836 835 835 835 834 834 833 833 832 831 830 829 828 827 827 826 825
823 824 824 825 825 825 826 827 827 826 827 827 827 828 828 828 828 828 828 829 830 830 831 832 833 834 834 834 834 834 834 835 835 835 836 836 837 837 838 838 838 838 838 839 839 839 838 837 837 837 837 837 837 836 836 836 836 836 837 837 837 837 837 837 837 837 836 836 836 835 835 834 834 833 833 832 831 830 830 829 828 827 826 825 824
821 823 824 824 824 824 825 826 826 826 826 826 827 827 828 828 828 828 828 829 830 831 831 832 833 833 834 834 834 834 835 835 836 836 837 837 838 838 839 839 839 839 839 839 839 839 838 837 837 837 837 837 837 837 837 837 837 837 837 837 837 837 838 837 837 837 836 836 835 835 834 834 833 832 832 831 830 829 828 828 827 826 825 825 824
819 820 822 822 822 822 823 824 825 825 826 826 826 827 827 828 828 828 829 830 830 831 831 832 833 833 834 834 834 834 835 836 836 837 838 838 839 839 839 839 839 839 839 839 839 839 838 837 837 837 837 838 838 838 838 838 838 838 838 838 838 838 838 838 838 837 836 836 835 834 833 833 832 831 831 830 829 828 828 827 826 825 824 824 823
816 817 818 819 820 820 821 822 823 824 825 825 826 826 827 828 828 828 829 830 830 831 832 832 833 834 834 834 835 835 835 836 837 838 838 839 839 840 840 840 840 840 839 839 839 839 838 838 838 837 838 838 838 839 839 839 839 839 839 839 839 839 838 838 838 837 836 835 834 834 833 832 831 830 829 829 828 827 827 826 825 825 824 823 822
814 815 817 818 819 820 821 822 822 823 824 824 825 826 827 827 827 828 829 830 830 831 832 832 833 834 835 835 835 835 836 837 837 838 839 839 840 840 840 840 840 840 840 840 840 839 839 839 838 838 838 838 838 839 839 839 839 839 839 839 839 839 838 838 837 836 836 835 834 833 832 830 829 829 828 827 827 826 826 825 824 823 823 822 821
813 814 815 816 817 818 819 820 821 822 823 823 824 825 826 827 827 828 829 829 830 830 831 832 833 834 835 835 836 836 836 837 838 838 839 839 839 840 840 840 840 840 840 840 840 840 840 840 839 839 839 839 839 839 839 839 839 840 839 839 839 839 838 837 837 836 835 834 832 831 830 829 828 827 827 826 826 825 824 824 823 822 821 821 820
812 813 813 814 815 816 816 818 819 821 822 823 824 825 826 827 828 828 829 829 830 830 831 832 833 834 835 836 836 837 837 838 838 839 839 839 840 840 840 840 841 841 841 841 841 841 841 840 840 840 840 840 840 840 840 840 840 840 839 839 839 838 838 837 836 834 833 832 831 830 829 828 827 826 826 825 824 824 823 823 822 821 821 820 819
812 813 814 815 815 815 816 818 819 819 821 823 825 825 825 826 827 828 829 829 830 831 831 832 833 834 835 835 836 837 837 838 839 839 839 840 840 840 840 841 841 841 841 842 842 842 842 841 841 841 841 841 840 840 840 840 840 840 839 839 838 838 837 836 834 833 832 831 829 828 827 826 826 825 824 824 823 823 822 822 821 821 820 819 818
812 813 815 816 817 818 818 818 818 819 821 823 824 825 825 826 827 828 829 830 830 831 831 832 833 834 835 836 836 837 837 838 839 839 839 840 840 840 841 841 841 841 842 842 842 842 842 842 841 841 841 841 841 841 840 840 840 839 839 838 838 837 836 835 833 832 831 830 828 828 827 826 825 824 824 823 823 822 822 821 821 821 820 819 817